Flag for Germany Weather past 2 weeks in Herford, North Rhine-Westphalia, Germany

Now
45 °F

Quite cool.


Feels Like: 37 °F
Forecast: 44 / 51 °F
Wind: 18 mph from West

Location: Bueckeburg

Current Time: Dec 21, 2014 at 10:41:14 PM

Latest Report: Dec 21, 2014 at 9:20 PM


Visibility: 4 mi

Pressure: 30.07 "Hg

Humidity: 87%

Dew point: 41 °F

Location of HerfordLocation

Historic Weather in Herford — Graph

°F

Herford temperature yesterday

Maximum temperature yesterday: 45 °F (at 1:20 PM)
Minimum temperature yesterday: 39 °F (at 3:20 PM)
Average temperature yesterday: 42 °F

Past Weeks' High & Low Weather Summary

 TemperatureHumidityPressure
High54 °F (Dec 18, 2:20 PM)94% (Dec 18, 12:20 AM)30.36 "Hg (Dec 18, 12:20 AM)
Low34 °F (Dec 14, 9:20 PM)61% (Dec 10, 5:20 AM)29.30 "Hg (Dec 12, 3:20 PM)
Average42 °F84%29.89 "Hg
* Reported Dec 6 9:20 PM — Dec 21 9:20 PM, Herford, Weather by CustomWeather, © 2014

Note: Actual official high and low records may vary slightly from our data, if they occured in-between our weather recording intervals... More about our weather records

Advertising

Herford weather history for previous 24 hours

 ConditionsComfort  
Time TempWeatherWind HumidityBarometerVisibility
9:20 PM
Dec 21
45 °FQuite cool.18 mph87%30.07 "Hg4 mi
8:20 PM45 °FQuite cool.21 mph87%30.09 "Hg4 mi
7:20 PM45 °FQuite cool.20 mph81%30.09 "Hg6 mi
6:20 PM45 °FQuite cool.17 mph87%30.12 "Hg3 mi
5:20 PM45 °FQuite cool.17 mph81%30.15 "Hg6 mi
4:20 PM45 °FQuite cool.16 mph81%30.18 "Hg5 mi
3:20 PM45 °FQuite cool.16 mph76%30.18 "Hg6 mi
2:20 PM45 °FQuite cool.17 mph81%30.21 "Hg5 mi
1:20 PM45 °FQuite cool.18 mph81%30.24 "Hg4 mi
12:20 PM43 °FQuite cool.16 mph87%30.27 "Hg4 mi
11:20 AM43 °FQuite cool.14 mph81%30.27 "Hg4 mi
10:20 AM43 °FQuite cool.13 mph81%30.30 "Hg4 mi
9:20 AM41 °FQuite cool.13 mph87%30.30 "Hg4 mi
8:20 AM39 °FChilly.12 mph87%30.30 "Hg4 mi
7:20 AM39 °FChilly.12 mph87%30.27 "Hg5 mi
6:20 AM39 °FChilly.13 mph87%30.27 "Hg4 mi
5:20 AM39 °FChilly.9 mph87%30.27 "Hg4 mi
4:20 AM41 °FQuite cool.10 mph81%30.27 "Hg4 mi
3:20 AM39 °FChilly.12 mph87%30.24 "Hg5 mi
2:20 AM41 °FQuite cool.14 mph81%30.24 "Hg5 mi
1:20 AM39 °FChilly.13 mph87%30.21 "Hg5 mi
12:20 AM41 °FQuite cool.16 mph81%30.18 "Hg5 mi
11:20 PM
Dec 20
39 °FChilly.15 mph81%30.15 "Hg5 mi
10:20 PM39 °FChilly.14 mph87%30.12 "Hg6 mi
Weather by CustomWeather, © 2014

See weather overviewHow to use our weather pages